HS5BOG-13 Weather Reports


Display with metric or nautical units.
time (UTC)temp
F
wind
direction
speed
MPH
gust
MPH
rain 1hr
in
rain 24hr
in
rain mn
in
humidity
%
barometer
mb
20260505075551 86 0.0 0.0 0.00 0.00 0.00 76 991.0
20260505074545 86 0.0 0.0 0.00 0.00 0.00 77 991.3
20260505073539 86 0.0 0.0 0.00 0.00 0.00 77 991.5
20260505072534 86 0.0 0.0 0.00 0.00 0.00 77 991.7
20260505071528 86 0.0 0.0 0.00 0.00 0.00 76 992.0
20260505070523 86 0.0 0.0 0.00 0.00 0.00 78 992.0
20260505065517 85 0.0 0.0 0.00 0.00 0.00 81 992.3
20260505064511 85 0.0 0.0 0.00 0.00 0.00 82 992.5
20260505063505 85 0.0 0.0 0.00 0.00 0.00 82 992.8
20260505062500 85 0.0 0.0 0.00 0.00 0.00 82 993.0
20260505061454 85 0.0 0.0 0.00 0.00 0.00 83 993.4
20260505060449 85 0.0 0.0 0.00 0.00 0.00 83 993.7
20260505055443 85 0.0 0.0 0.00 0.00 0.00 84 994.0
20260505054438 84 0.0 0.0 0.00 0.00 0.00 85 994.3
20260505053432 84 0.0 0.0 0.00 0.00 0.00 85 994.5
20260505052426 84 0.0 0.0 0.00 0.00 0.00 85 994.6
20260505051421 84 0.0 0.0 0.00 0.00 0.00 84 995.0
20260505050415 83 0.0 0.0 0.00 0.00 0.00 86 995.4
20260505041347 83 0.0 0.0 0.00 0.00 0.00 92 995.9
20260505040341 83 0.0 0.0 0.00 0.00 0.00 93 996.0
20260505035336 82 0.0 0.0 0.00 0.00 0.00 96 996.2
20260505034330 82 0.0 0.0 0.00 0.00 0.00 96 996.2
20260505033324 82 0.0 0.0 0.00 0.00 0.00 96 996.2
20260505032319 82 0.0 0.0 0.00 0.00 0.00 96 996.3
20260505031313 82 0.0 0.0 0.00 0.00 0.00 95 996.3
20260505030308 82 0.0 0.0 0.00 0.00 0.00 95 996.5
20260505025304 82 0.0 0.0 0.00 0.00 0.00 95 996.8
20260505024256 82 0.0 0.0 0.00 0.00 0.00 95 996.7
20260505023251 82 0.0 0.0 0.00 0.00 0.00 93 996.8
20260505022245 82 0.0 0.0 0.00 0.00 0.00 93 996.8
20260505021240 82 0.0 0.0 0.00 0.00 0.00 92 996.8
20260505020234 82 0.0 0.0 0.00 0.00 0.00 92 996.8
20260505015228 82 0.0 0.0 0.00 0.00 0.00 94 996.8
20260505014223 82 0.0 0.0 0.00 0.00 0.00 95 996.7
20260505013217 81 0.0 0.0 0.00 0.00 0.00 95 996.6
20260505012212 81 0.0 0.0 0.00 0.00 0.00 95 996.5
20260505011206 81 0.0 0.0 0.00 0.00 0.00 94 996.3
20260505010201 81 0.0 0.0 0.00 0.00 0.00 95 996.2
20260505005155 81 0.0 0.0 0.00 0.00 0.00 94 995.9
20260505004149 81 0.0 0.0 0.00 0.00 0.00 95 995.9
20260505003144 81 0.0 0.0 0.00 0.00 0.00 97 995.6
20260505002138 81 0.0 0.0 0.00 0.00 0.00 99 995.4
20260505001132 80 0.0 0.0 0.00 0.00 0.00 98 995.3
20260505000127 80 0.0 0.0 0.00 0.00 0.00 98 995.2
20260504235121 80 0.0 0.0 0.00 0.00 0.00 97 995.0
20260504234116 79 0.0 0.0 0.00 0.00 0.00 96 994.9
20260504233110 80 0.0 0.0 0.00 0.00 0.00 95 994.7
20260504232105 80 0.0 0.0 0.00 0.00 0.00 95 994.5
20260504231059 80 0.0 0.0 0.00 0.00 0.00 95 994.2
20260504230053 80 0.0 0.0 0.00 0.00 0.00 94 994.3
20260504225048 80 0.0 0.0 0.00 0.00 0.00 95 994.1
20260504224042 80 0.0 0.0 0.00 0.00 0.00 95 994.1
20260504223037 80 0.0 0.0 0.00 0.00 0.00 95 994.0
20260504222031 80 0.0 0.0 0.00 0.00 0.00 93 993.9
20260504221025 80 0.0 0.0 0.00 0.00 0.00 93 993.8
20260504220020 80 0.0 0.0 0.00 0.00 0.00 92 993.6
20260504215014 80 0.0 0.0 0.00 0.00 0.00 92 993.7
20260504214009 80 0.0 0.0 0.00 0.00 0.00 92 993.5
20260504213003 81 0.0 0.0 0.00 0.00 0.00 91 993.1
20260504211642 81 0.0 0.0 0.00 0.00 0.00 91 993.2
20260504210637 81 0.0 0.0 0.00 0.00 0.00 91 993.4
20260504205631 81 0.0 0.0 0.00 0.00 0.00 90 993.5
20260504204626 81 0.0 0.0 0.00 0.00 0.00 90 993.6
20260504203620 81 0.0 0.0 0.00 0.00 0.00 89 993.4
20260504202614 81 0.0 0.0 0.00 0.00 0.00 88 993.4
20260504201609 81 0.0 0.0 0.00 0.00 0.00 89 993.5
20260504200603 81 0.0 0.0 0.00 0.00 0.00 89 993.7
20260504195558 81 0.0 0.0 0.00 0.00 0.00 89 994.0
20260504194552 81 0.0 0.0 0.00 0.00 0.00 90 994.1
20260504193547 81 0.0 0.0 0.00 0.00 0.00 87 994.2
20260504192541 81 0.0 0.0 0.00 0.00 0.00 87 994.5
20260504191536 81 0.0 0.0 0.00 0.00 0.00 86 994.5
20260504190530 81 0.0 0.0 0.00 0.00 0.00 85 994.6
20260504185524 82 0.0 0.0 0.00 0.00 0.00 85 994.7
20260504184519 82 0.0 0.0 0.00 0.00 0.00 84 995.0
20260504183513 82 0.0 0.0 0.00 0.00 0.00 84 995.1
20260504182508 82 0.0 0.0 0.00 0.00 0.00 83 995.1
20260504181502 82 0.0 0.0 0.00 0.00 0.00 84 995.0
20260504180457 82 0.0 0.0 0.00 0.00 0.00 82 995.0
20260504175451 82 0.0 0.0 0.00 0.00 0.00 84 994.9
20260504174445 82 0.0 0.0 0.00 0.00 0.00 84 995.0
20260504173440 82 0.0 0.0 0.00 0.00 0.00 82 994.9
20260504172434 82 0.0 0.0 0.00 0.00 0.00 81 994.6
20260504171429 82 0.0 0.0 0.00 0.00 0.00 81 994.1
20260504170423 82 0.0 0.0 0.00 0.00 0.00 78 994.2
20260504160350 83 0.0 0.0 0.00 0.00 0.00 77 995.1
20260504150932 84 0.0 0.0 0.00 0.00 0.00 69 995.3
20260504081552 93 0.0 0.0 0.00 0.00 0.00 38 988.9
20260504080546 93 0.0 0.0 0.00 0.00 0.00 41 989.1